{"data":{"norad_id":52907,"epoch":"2026-09-20T23:51:28.138752Z","epoch_age_seconds":91704,"freshness":"FRESH","line1":"1 52907U 22068A   26263.99407568  .00004329  00000+0  16930-3 0  9997","line2":"2 52907  34.9905 254.3946 0011915 229.8580 130.1092 15.25198900236523","mean_motion":15.251989,"eccentricity":0.0011915,"inclination_deg":34.9905,"raan_deg":254.3946,"arg_perigee_deg":229.858,"mean_anomaly_deg":130.1092,"bstar":0.0001693,"rev_number":23652,"period_min":94.413915457191,"perigee_km":482.00463070698,"apogee_km":498.37184975445,"semimajor_km":6868.3252402307,"source":"CELESTRAK","updated_at":"2026-09-21T09:00:08.761965Z"}}